Location: Brabourne
(51.1333°N, 1.0000°E)
Time: 06:01:12
(UTC+00:00)

NOSS 3-1 (A) - Pass Details

Date: 30 October 2021
Orbit: 721 x 1491 km, 63.4° (Epoch: 22 November)

Event Time Altitude Azimuth Distance (km) Brightness Sun altitude
Rises 22:35:37 0° 306° (NW) 3,663 7.0 -50.8°
Reaches altitude 10° 22:38:14 10° 315° (NW) 2,824 6.3 -50.9°
Enters shadow 22:38:24 11° 316° (NW) 2,773 6.3 -50.9°
